| time (UTC) | temp F | wind direction | speed knots | gust knots | rain 1hr in | rain 24hr in | rain mn in | humidity % | barometer mb |
| 20260504044528 | 50 | 221 | 2.6 | 4.3 | 0.00 | 0.00 | 0.00 | 61 | 1013.1 |
| 20260504043028 | 50 | 221 | 2.6 | 3.5 | 0.00 | 0.00 | 0.00 | 61 | 1013.1 |
| 20260504041540 | 50 | 221 | 1.7 | 3.5 | 0.00 | 0.00 | 0.00 | 60 | 1013.1 |
| 20260504040039 | 50 | 221 | 1.7 | 4.3 | 0.00 | 0.00 | 0.00 | 58 | 1013.3 |
| 20260504034529 | 51 | 241 | 1.7 | 6.1 | 0.00 | 0.00 | 0.00 | 57 | 1013.4 |
| 20260504033030 | 51 | 256 | 2.6 | 5.2 | 0.00 | 0.00 | 0.00 | 57 | 1013.4 |
| 20260504031528 | 50 | 296 | 2.6 | 6.1 | 0.00 | 0.00 | 0.00 | 56 | 1013.5 |
| 20260504030035 | 50 | 270 | 3.5 | 7.8 | 0.00 | 0.00 | 0.00 | 55 | 1013.6 |
| 20260504024531 | 50 | 273 | 6.1 | 8.7 | 0.00 | 0.00 | 0.00 | 56 | 1013.7 |
| 20260504023031 | 49 | 234 | 4.3 | 9.6 | 0.00 | 0.00 | 0.00 | 58 | 1013.8 |
| 20260504021528 | 48 | 215 | 2.6 | 3.5 | 0.00 | 0.00 | 0.00 | 58 | 1013.5 |
| 20260504020036 | 49 | 215 | 2.6 | 3.5 | 0.00 | 0.00 | 0.00 | 56 | 1013.4 |
| 20260504014531 | 51 | 215 | 1.7 | 4.3 | 0.00 | 0.00 | 0.00 | 52 | 1013.5 |
| 20260504013032 | 51 | 215 | 1.7 | 4.3 | 0.00 | 0.00 | 0.00 | 51 | 1013.3 |
| 20260504011528 | 52 | 215 | 2.6 | 4.3 | 0.00 | 0.00 | 0.00 | 50 | 1013.3 |
| 20260504010030 | 53 | 222 | 3.5 | 6.1 | 0.00 | 0.00 | 0.00 | 48 | 1013.3 |
| 20260504004528 | 54 | 238 | 2.6 | 6.1 | 0.00 | 0.00 | 0.00 | 47 | 1013.3 |
| 20260504003028 | 54 | 237 | 3.5 | 7.8 | 0.00 | 0.00 | 0.00 | 45 | 1013.2 |
| 20260504001535 | 55 | 244 | 4.3 | 11.3 | 0.00 | 0.00 | 0.00 | 45 | 1013.2 |
| 20260504000029 | 55 | 274 | 4.3 | 13.0 | 0.00 | 0.00 | 0.00 | 44 | 1013.3 |
| 20260503234616 | 56 | 246 | 6.1 | 12.2 | 0.00 | 0.00 | 0.00 | 44 | 1013.6 |
| 20260503233030 | 56 | 246 | 8.7 | 15.6 | 0.00 | 0.00 | 0.00 | 43 | 1013.5 |
| 20260503231532 | 56 | 236 | 8.7 | 16.5 | 0.00 | 0.00 | 0.00 | 43 | 1013.5 |
| 20260503230038 | 57 | 265 | 9.6 | 17.4 | 0.00 | 0.00 | 0.00 | 42 | 1013.6 |
| 20260503224530 | 57 | 245 | 9.6 | 20.0 | 0.00 | 0.00 | 0.00 | 42 | 1013.5 |
| 20260503223028 | 57 | 258 | 10.4 | 18.2 | 0.00 | 0.00 | 0.00 | 41 | 1013.7 |
| 20260503221530 | 57 | 275 | 11.3 | 17.4 | 0.00 | 0.00 | 0.00 | 42 | 1013.8 |
| 20260503220030 | 58 | 234 | 10.4 | 16.5 | 0.00 | 0.00 | 0.00 | 41 | 1013.8 |
| 20260503214537 | 58 | 228 | 10.4 | 16.5 | 0.00 | 0.00 | 0.00 | 41 | 1013.9 |
| 20260503213031 | 58 | 247 | 7.0 | 13.9 | 0.00 | 0.00 | 0.00 | 40 | 1013.8 |
| 20260503211532 | 58 | 267 | 7.0 | 12.2 | 0.00 | 0.00 | 0.00 | 41 | 1013.8 |
| 20260503210028 | 57 | 304 | 4.3 | 20.0 | 0.00 | 0.00 | 0.00 | 42 | 1013.7 |
| 20260503204529 | 58 | 240 | 10.4 | 16.5 | 0.00 | 0.00 | 0.00 | 40 | 1013.7 |
| 20260503203035 | 59 | 304 | 9.6 | 15.6 | 0.00 | 0.00 | 0.00 | 40 | 1013.9 |
| 20260503201530 | 58 | 305 | 11.3 | 18.2 | 0.00 | 0.00 | 0.00 | 39 | 1014.1 |
| 20260503200029 | 59 | 261 | 7.0 | 18.2 | 0.00 | 0.00 | 0.00 | 38 | 1014.3 |
| 20260503194528 | 58 | 232 | 9.6 | 21.7 | 0.00 | 0.00 | 0.00 | 38 | 1014.7 |
| 20260503193042 | 59 | 252 | 9.6 | 17.4 | 0.00 | 0.00 | 0.00 | 38 | 1014.7 |
| 20260503191559 | 58 | 257 | 8.7 | 17.4 | 0.00 | 0.00 | 0.00 | 38 | 1015.1 |
| 20260503190035 | 59 | 246 | 11.3 | 19.1 | 0.00 | 0.00 | 0.00 | 39 | 1015.2 |
| 20260503184529 | 58 | 278 | 11.3 | 19.1 | 0.00 | 0.00 | 0.00 | 40 | 1015.4 |
| 20260503183029 | 58 | 246 | 10.4 | 20.0 | 0.00 | 0.00 | 0.00 | 38 | 1015.6 |
| 20260503181541 | 58 | 240 | 11.3 | 16.5 | 0.00 | 0.00 | 0.00 | 42 | 1015.8 |
| 20260503180030 | 58 | 260 | 9.6 | 17.4 | 0.00 | 0.00 | 0.00 | 40 | 1015.9 |
| 20260503174532 | 56 | 297 | 7.8 | 16.5 | 0.00 | 0.00 | 0.00 | 44 | 1016.1 |
| 20260503173030 | 56 | 262 | 6.1 | 15.6 | 0.00 | 0.00 | 0.00 | 46 | 1016.2 |
| 20260503171528 | 56 | 295 | 9.6 | 20.9 | 0.00 | 0.00 | 0.00 | 45 | 1016.5 |
| 20260503081535 | 34 | 0 | 0.0 | 0.0 | 0.00 | 0.00 | 0.00 | 88 | 1016.6 |
| 20260503071530 | 36 | 0 | 0.0 | 1.7 | 0.00 | 0.00 | 0.00 | 88 | 1016.4 |
| 20260503054543 | 36 | 0 | 0.0 | 0.9 | 0.00 | 0.00 | 0.00 | 88 | 1016.5 |
| 20260503053031 | 37 | 0 | 0.0 | 2.6 | 0.00 | 0.00 | 0.00 | 88 | 1016.6 |
| 20260503051529 | 37 | 0 | 0.0 | 0.9 | 0.00 | 0.00 | 0.00 | 88 | 1016.7 |
| 20260503050033 | 37 | 0 | 0.0 | 1.7 | 0.00 | 0.00 | 0.00 | 88 | 1016.8 |